Tracking 21612 objects as of 20-Oct-2020
HD Live streaming from Space Station
objects crossing your sky now

PALAPA B4

Track PALAPA B4 now!
PALAPA B4 is classified as:


NORAD ID: 21964
Int'l Code: 1992-027A
Perigee: 35,866.2 km
Apogee: 35,902.1 km
Inclination: 11.2 °
Period: 1,440.7 minutes
Semi major axis: 42255 km
RCS: 12.5892 m2 (large)
Launch date: May 14, 1992
Source: Indonesia (INDO)
Launch site: AIR FORCE EASTERN TEST RANGE (AFETR)

Palapa B-4 was an Indonesian communications spacecraft launched by a Delta rocket.
aabbcc
Your satellite tracking list
Your tracking list is empty




NASA's NSSDC Master Catalog

Two Line Element Set (TLE):
1 21964U 92027A   20293.59254628 -.00000193 +00000-0 +00000-0 0  9993
2 21964 011.1961 031.1180 0004242 345.3596 210.3536 00.99950153103852
Source of the keplerian elements: AFSPC